When you browse on this site, cookies collect data to enhance your experience and personalize the content and advertising you see.
Visit our Privacy Policy to learn more. By continuing to use the site, you agree to this use of cookies and data.
  • In Latvia
  • List of Countries
  • For 7 days
  • Water Temperature
  • Weather Map
  • Weather Widgets
  • user-avatar
    Login

    Hourly Weather Nazaret

    Today, 28 February, Friday

    Time Temperature Precipitation Wind Pressure Humidity
    00:00 +12°C° 0 mm 1 mps 730 mmHg 70%
    01:00 +12°C° 0 mm 1 mps 730 mmHg 70%
    02:00 +11°C° 0 mm 1 mps 729 mmHg 73%
    03:00 +11°C° 0 mm 1 mps 729 mmHg 72%
    04:00 +11°C° 0 mm 1 mps 729 mmHg 71%
    05:00 +11°C° 0 mm 1 mps 729 mmHg 70%
    06:00 +12°C° 0 mm 1 mps 729 mmHg 68%
    07:00 +14°C° 0 mm 1 mps 730 mmHg 66%
    08:00 +15°C° 0 mm 1 mps 730 mmHg 62%
    09:00 +16°C° 0 mm 1 mps 730 mmHg 58%
    10:00 +19°C° 0 mm 1 mps 730 mmHg 53%
    11:00 +20°C° 0 mm 1 mps 730 mmHg 48%
    12:00 +20°C° 0 mm 1 mps 730 mmHg 48%
    13:00 +20°C° 0 mm 2 mps 729 mmHg 48%
    14:00 +20°C° 0 mm 2 mps 729 mmHg 49%
    15:00 +18°C° 0 mm 2 mps 729 mmHg 55%
    16:00 +17°C° 0 mm 2 mps 729 mmHg 61%
    17:00 +16°C° 0 mm 2 mps 728 mmHg 67%
    18:00 +14°C° 0 mm 1 mps 728 mmHg 67%
    19:00 +13°C° 0 mm 1 mps 728 mmHg 67%
    20:00 +12°C° 0 mm 1 mps 728 mmHg 67%
    21:00 +12°C° 0 mm 1 mps 728 mmHg 65%
    22:00 +11°C° 0 mm 0 mps 728 mmHg 63%
    23:00 +11°C° 0 mm 0 mps 728 mmHg 61%

    Tomorrow, 29 February, Saturday

    Time Temperature Precipitation Wind Pressure Humidity
    00:00 +10°C° 0 mm 0 mps 727 mmHg 60%
    01:00 +11°C° 0 mm 1 mps 727 mmHg 60%
    02:00 +11°C° 0 mm 1 mps 726 mmHg 60%
    03:00 +11°C° 0 mm 1 mps 726 mmHg 62%
    04:00 +11°C° 0 mm 1 mps 726 mmHg 64%
    05:00 +10°C° 0 mm 2 mps 727 mmHg 67%
    06:00 +12°C° 0.2 mm 2 mps 727 mmHg 72%
    07:00 +12°C° 0.2 mm 3 mps 727 mmHg 78%
    08:00 +13°C° 0.2 mm 3 mps 727 mmHg 83%
    09:00 +13°C° 0.2 mm 5 mps 727 mmHg 79%
    10:00 +14°C° 0.2 mm 6 mps 728 mmHg 74%
    11:00 +14°C° 0.2 mm 7 mps 728 mmHg 69%
    12:00 +14°C° 0.1 mm 7 mps 727 mmHg 68%
    13:00 +14°C° 0.1 mm 7 mps 727 mmHg 68%
    14:00 +13°C° 0.1 mm 6 mps 726 mmHg 68%
    15:00 +13°C° 0.2 mm 6 mps 726 mmHg 71%
    16:00 +11°C° 0.2 mm 6 mps 726 mmHg 75%
    17:00 +12°C° 0.2 mm 5 mps 726 mmHg 79%
    18:00 +11°C° 0.3 mm 6 mps 726 mmHg 81%
    19:00 +10°C° 0.3 mm 6 mps 726 mmHg 83%
    20:00 +10°C° 0.3 mm 7 mps 726 mmHg 85%
    21:00 +9°C° 1.5 mm 7 mps 726 mmHg 82%
    22:00 +9°C° 1.5 mm 7 mps 726 mmHg 79%
    23:00 +9°C° 1.5 mm 7 mps 726 mmHg 76%

    Day after tomorrow, 1 March, Sunday

    Time Temperature Precipitation Wind Pressure Humidity
    00:00 +9°C° 0.3 mm 8 mps 726 mmHg 77%
    01:00 +9°C° 0.3 mm 8 mps 726 mmHg 78%
    02:00 +7°C° 0.3 mm 8 mps 725 mmHg 79%
    03:00 +9°C° 0.7 mm 8 mps 726 mmHg 80%
    04:00 +9°C° 0.7 mm 7 mps 726 mmHg 81%
    05:00 +9°C° 0.7 mm 7 mps 726 mmHg 82%
    06:00 +9°C° 0.4 mm 7 mps 727 mmHg 80%
    07:00 +10°C° 0.4 mm 6 mps 727 mmHg 77%
    08:00 +10°C° 0.4 mm 6 mps 728 mmHg 75%
    09:00 +11°C° 0 mm 6 mps 729 mmHg 72%
    10:00 +13°C° 0 mm 6 mps 729 mmHg 68%
    11:00 +14°C° 0 mm 6 mps 730 mmHg 65%
    12:00 +14°C° 0 mm 6 mps 729 mmHg 64%
    13:00 +14°C° 0 mm 6 mps 729 mmHg 63%
    14:00 +14°C° 0 mm 6 mps 729 mmHg 62%
    15:00 +13°C° 0 mm 5 mps 729 mmHg 66%
    16:00 +12°C° 0 mm 4 mps 730 mmHg 70%
    17:00 +12°C° 0 mm 3 mps 730 mmHg 74%
    18:00 +12°C° 0 mm 2 mps 730 mmHg 75%
    19:00 +11°C° 0 mm 1 mps 730 mmHg 77%
    20:00 +10°C° 0 mm 1 mps 731 mmHg 78%
    21:00 +9°C° 0 mm 1 mps 731 mmHg 79%
    22:00 +8°C° 0 mm 0 mps 731 mmHg 81%
    23:00 +8°C° 0 mm 0 mps 731 mmHg 82%

    2 March, Monday

    Time Temperature Precipitation Wind Pressure Humidity
    00:00 +8°C° 0 mm 0 mps 731 mmHg 81%
    01:00 +10°C° 0 mm 1 mps 731 mmHg 81%
    02:00 +10°C° 0 mm 1 mps 731 mmHg 81%
    03:00 +10°C° 0 mm 1 mps 731 mmHg 81%
    04:00 +11°C° 0 mm 1 mps 731 mmHg 82%
    05:00 +11°C° 0 mm 1 mps 731 mmHg 82%
    06:00 +11°C° 0 mm 1 mps 732 mmHg 81%
    07:00 +12°C° 0 mm 2 mps 732 mmHg 80%
    08:00 +12°C° 0 mm 2 mps 733 mmHg 78%
    09:00 +13°C° 0 mm 2 mps 733 mmHg 75%
    10:00 +13°C° 0 mm 3 mps 733 mmHg 71%
    11:00 +13°C° 0 mm 3 mps 733 mmHg 67%
    12:00 +14°C° 0 mm 3 mps 732 mmHg 65%
    13:00 +14°C° 0 mm 3 mps 732 mmHg 64%
    14:00 +16°C° 0 mm 3 mps 732 mmHg 62%
    15:00 +14°C° 0 mm 3 mps 732 mmHg 67%
    16:00 +13°C° 0 mm 3 mps 732 mmHg 71%
    17:00 +13°C° 0 mm 2 mps 731 mmHg 75%
    18:00 +12°C° 0 mm 2 mps 732 mmHg 78%
    19:00 +11°C° 0 mm 1 mps 732 mmHg 81%
    20:00 +9°C° 0 mm 1 mps 732 mmHg 84%
    21:00 +9°C° 0 mm 1 mps 732 mmHg 84%
    22:00 +9°C° 0 mm 1 mps 732 mmHg 85%
    23:00 +8°C° 0 mm 0 mps 733 mmHg 85%

    3 March, Tuesday

    Time Temperature Precipitation Wind Pressure Humidity
    00:00 +8°C° 0 mm 1 mps 732 mmHg 85%
    01:00 +8°C° 0 mm 1 mps 732 mmHg 86%
    02:00 +8°C° 0 mm 1 mps 732 mmHg 86%
    03:00 +8°C° 0 mm 1 mps 732 mmHg 86%
    04:00 +8°C° 0 mm 1 mps 732 mmHg 86%
    05:00 +7°C° 0 mm 1 mps 732 mmHg 86%
    06:00 +9°C° 0 mm 1 mps 732 mmHg 81%
    07:00 +10°C° 0 mm 1 mps 733 mmHg 77%
    08:00 +12°C° 0 mm 2 mps 733 mmHg 73%
    09:00 +14°C° 0 mm 2 mps 733 mmHg 67%
    10:00 +14°C° 0 mm 3 mps 733 mmHg 62%
    11:00 +17°C° 0 mm 3 mps 733 mmHg 56%
    12:00 +18°C° 0 mm 3 mps 733 mmHg 53%
    13:00 +19°C° 0 mm 3 mps 733 mmHg 50%
    14:00 +20°C° 0 mm 3 mps 732 mmHg 47%
    15:00 +19°C° 0 mm 2 mps 732 mmHg 53%
    16:00 +18°C° 0 mm 2 mps 732 mmHg 59%
    17:00 +17°C° 0 mm 2 mps 731 mmHg 64%
    18:00 +16°C° 0 mm 2 mps 731 mmHg 62%
    19:00 +15°C° 0 mm 2 mps 731 mmHg 60%
    20:00 +13°C° 0 mm 2 mps 732 mmHg 59%
    21:00 +12°C° 0 mm 3 mps 731 mmHg 57%
    22:00 +12°C° 0 mm 3 mps 731 mmHg 54%
    23:00 +12°C° 0 mm 3 mps 731 mmHg 52%

    4 March, Wednesday

    Time Temperature Precipitation Wind Pressure Humidity
    00:00 +12°C° 0 mm 3 mps 731 mmHg 52%
    01:00 +12°C° 0 mm 3 mps 730 mmHg 52%
    02:00 +12°C° 0 mm 3 mps 730 mmHg 52%
    03:00 +11°C° 0 mm 4 mps 730 mmHg 52%
    04:00 +11°C° 0 mm 4 mps 730 mmHg 53%
    05:00 +11°C° 0 mm 4 mps 729 mmHg 53%
    06:00 +12°C° 0 mm 4 mps 730 mmHg 54%
    07:00 +13°C° 0 mm 5 mps 730 mmHg 56%
    08:00 +14°C° 0 mm 5 mps 730 mmHg 57%
    09:00 +16°C° 0 mm 6 mps 730 mmHg 52%
    10:00 +19°C° 0 mm 6 mps 730 mmHg 48%
    11:00 +21°C° 0 mm 7 mps 730 mmHg 43%
    12:00 +22°C° 0 mm 7 mps 729 mmHg 41%
    13:00 +23°C° 0 mm 6 mps 729 mmHg 39%
    14:00 +24°C° 0 mm 6 mps 728 mmHg 37%
    15:00 +23°C° 0 mm 5 mps 728 mmHg 40%
    16:00 +21°C° 0 mm 4 mps 728 mmHg 44%
    17:00 +20°C° 0 mm 4 mps 727 mmHg 47%
    18:00 +19°C° 0 mm 4 mps 727 mmHg 45%
    19:00 +17°C° 0 mm 4 mps 727 mmHg 43%
    20:00 +15°C° 0 mm 4 mps 727 mmHg 41%
    21:00 +16°C° 0 mm 3 mps 727 mmHg 41%
    22:00 +14°C° 0 mm 3 mps 727 mmHg 41%
    23:00 +14°C° 0 mm 3 mps 726 mmHg 40%
    Show more